Chanute, KS

11:59 AM CDT on October 20, 2019 (GMT -0500)
Chanute Martin Johnson

Weather History for KCNU - October, 2019

Change the Weather History Date:

Thursday, October 10, 2019

  Actual Average Record
Temperature  
Mean Temperature 62 °F 60 °F  
Max Temperature 80 °F 71 °F 94 °F (1963)
Min Temperature 44 °F 49 °F 26 °F (1925)
Degree Days  
Heating Degree Days 3 6  
Month to date heating degree days 30 52  
Since 1 July heating degree days 30 99  
Cooling Degree Days 0 1  
Month to date cooling degree days 34 18  
Year to date cooling degree days 1867 1515  
Growing Degree Days 12 (Base 50)    
Moisture  
Dew Point 58 °F    
Average Humidity 80    
Maximum Humidity 87    
Minimum Humidity 72    
Precipitation  
Precipitation 0.28 in 0.12 in 1.81 in (1961)
Month to date precipitation 2.55 1.39  
Year to date precipitation 53.17 35.55  
Sea Level Pressure  
Sea Level Pressure 29.81 in    
Wind  
Wind Speed 14 mph (SSW)    
Max Wind Speed 26 mph    
Max Gust Speed 39 mph    
Visibility 9 miles    
Events Rain , Thunderstorm    
T = Trace of Precipitation, MM = Missing Value Source: NWS Daily Summary

Daily Weather History Graph

Daily Weather History Graph

Search for Another Location

Airport or City:

Astronomy

Oct. 10, 2019 Rise Set
Actual Time 7:25 AM CDT 6:51 PM CDT
Civil Twilight 6:59 AM CDT 7:18 PM CDT
Nautical Twilight 6:28 AM CDT 7:48 PM CDT
Astronomical Twilight 5:58 AM CDT 8:18 PM CDT
Moon 5:49 PM CDT (10/10) 4:15 AM CDT (10/10)
Length of Visible Light 12h 19m
Length of Day
11h 26m
Waxing Gibbous, 91% of the Moon is Illuminated
Oct 10
Waxing Gibbous
Oct 13
Full
Oct 21
Last Quarter
Oct 27
New
Nov 4
First Quarter

Hourly Weather History & Observations

Time (CDT) Temp. Windchill Dew Point Humidity Pressure Visibility Wind Dir Wind Speed Gust Speed Precip Events Conditions
12:52 AM 64.9 °F - 57.9 °F 78% 29.79 in 10.0 mi SE 10.4 mph - N/A   Clear
1:52 AM 64.9 °F - 57.9 °F 78% 29.77 in 10.0 mi SE 11.5 mph - N/A   Clear
2:52 AM 66.0 °F - 57.9 °F 75% 29.75 in 10.0 mi SSE 13.8 mph - N/A   Clear
3:38 AM 66.0 °F - 59.0 °F 78% 29.80 in 10.0 mi SSW 8.1 mph 19.6 mph 0.00 in Rain , Thunderstorm Light Thunderstorms and Rain
3:52 AM 66.0 °F - 60.1 °F 81% 29.78 in 9.0 mi SSW 6.9 mph - 0.00 in Rain , Thunderstorm Light Thunderstorms and Rain
3:59 AM 66.0 °F - 60.1 °F 81% 29.81 in 8.0 mi SSW 11.5 mph - 0.01 in Rain , Thunderstorm Light Rain
4:22 AM 66.0 °F - 61.0 °F 84% 29.80 in 10.0 mi South 9.2 mph - 0.02 in Rain , Thunderstorm Light Thunderstorms and Rain
4:52 AM 64.9 °F - 62.1 °F 90% 29.76 in 1.5 mi SSE 4.6 mph - 0.22 in Rain , Thunderstorm Heavy Thunderstorms and Rain
5:02 AM 64.9 °F - 62.1 °F 90% 29.78 in 3.0 mi East 8.1 mph - 0.06 in Rain , Thunderstorm Light Thunderstorms and Rain
5:10 AM 66.0 °F - 63.0 °F 90% 29.79 in 9.0 mi NE 8.1 mph - 0.06 in Rain , Thunderstorm Light Thunderstorms and Rain
5:21 AM 64.9 °F - 62.1 °F 90% 29.78 in 8.0 mi North 8.1 mph - 0.06 in Thunderstorm Overcast
5:40 AM 66.0 °F - 63.0 °F 90% 29.79 in 10.0 mi Calm Calm - 0.06 in Thunderstorm Thunderstorm
5:52 AM 66.0 °F - 63.0 °F 90% 29.76 in 8.0 mi North 5.8 mph - 0.06 in   Overcast
6:52 AM 66.0 °F - 62.1 °F 87% 29.73 in 10.0 mi ENE 8.1 mph - N/A   Overcast
7:52 AM 66.9 °F - 62.1 °F 84% 29.74 in 10.0 mi ESE 8.1 mph - N/A   Overcast
8:17 AM 66.9 °F - 62.1 °F 84% 29.76 in 10.0 mi SE 9.2 mph 17.3 mph N/A   Overcast
8:52 AM 66.9 °F - 63.0 °F 87% 29.75 in 10.0 mi SE 6.9 mph - N/A   Overcast
9:52 AM 72.0 °F - 66.9 °F 84% 29.75 in 10.0 mi South 10.4 mph - N/A   Overcast
10:52 AM 73.0 °F - 68.0 °F 84% 29.75 in 10.0 mi South 16.1 mph - N/A   Overcast
11:32 AM 75.0 °F - 69.1 °F 82% 29.77 in 10.0 mi South 16.1 mph 26.5 mph N/A   Overcast
11:52 AM 75.9 °F - 70.0 °F 82% 29.73 in 10.0 mi South 16.1 mph - N/A   Overcast
12:52 PM 78.1 °F - 70.0 °F 76% 29.72 in 10.0 mi SSW 18.4 mph 24.2 mph N/A   Overcast
1:52 PM 79.0 °F - 71.1 °F 77% 29.70 in 10.0 mi SSW 13.8 mph - 0.00 in   Overcast
2:00 PM 78.1 °F - 70.0 °F 76% 29.73 in 10.0 mi SSW 11.5 mph - N/A   Overcast
2:52 PM 73.0 °F - 63.0 °F 71% 29.73 in 10.0 mi West 17.3 mph 26.5 mph 0.00 in Rain Light Rain
3:52 PM 62.1 °F - 54.0 °F 75% 29.79 in 10.0 mi WNW 16.1 mph 27.6 mph 0.00 in Rain Light Rain
4:52 PM 57.0 °F - 48.0 °F 72% 29.83 in 10.0 mi WNW 19.6 mph 27.6 mph 0.00 in Rain Light Rain
5:52 PM 53.1 °F - 44.1 °F 71% 29.87 in 10.0 mi NW 19.6 mph 28.8 mph 0.00 in Rain Light Rain
6:52 PM 50.0 °F - 42.1 °F 74% 29.91 in 10.0 mi WNW 18.4 mph 29.9 mph 0.00 in   Overcast
7:52 PM 48.0 °F - 41.0 °F 77% 29.96 in 10.0 mi NW 15.0 mph 24.2 mph N/A   Overcast
8:52 PM 46.9 °F - 39.9 °F 77% 29.98 in 10.0 mi NW 18.4 mph 26.5 mph N/A   Overcast
9:52 PM 46.9 °F - 39.0 °F 74% 30.01 in 10.0 mi NW 20.7 mph 28.8 mph N/A   Overcast
10:52 PM 45.0 °F 38.5 °F 37.9 °F 76% 30.05 in 10.0 mi NNW 13.8 mph 29.9 mph N/A   Overcast
11:52 PM 44.1 °F 36.8 °F 37.0 °F 76% 30.07 in 10.0 mi NNW 16.1 mph 28.8 mph N/A   Overcast